This is the latest recevied weather packets stored in our database for station/object SQ8AQX-13. If no packets are shown the sender has not sent any weather packets the latest 10 day(s).
| Time | Temp. | Humidity | Pressure | Rain* | Wind** | Luminosity | Snow |
|---|---|---|---|---|---|---|---|
| 1777764806 | 10° C | 65% | 1023.1 hPa | - | - | - | - |
| 1777763006 | 10° C | 64% | 1023 hPa | - | - | - | - |
| 1777762406 | 10° C | 65% | 1023.1 hPa | - | - | - | - |
| 1777761806 | 10° C | 64% | 1023.2 hPa | - | - | - | - |
| 1777760005 | 11.11° C | 60% | 1023.4 hPa | - | - | - | - |
| 1777759405 | 11.67° C | 60% | 1023.5 hPa | - | - | - | - |
| 1777758805 | 12.22° C | 58% | 1023.4 hPa | - | - | - | - |
| 1777757004 | 12.22° C | 58% | 1023.4 hPa | - | - | - | - |
| 1777756404 | 12.78° C | 56% | 1023.5 hPa | - | - | - | - |
| 1777755804 | 12.78° C | 55% | 1023.6 hPa | - | - | - | - |
| 1777754003 | 13.89° C | 52% | 1023.6 hPa | - | - | - | - |
| 1777753403 | 14.44° C | 51% | 1023.6 hPa | - | - | - | - |
| 1777752803 | 14.44° C | 51% | 1023.6 hPa | - | - | - | - |
| 1777751003 | 15° C | 48% | 1023.6 hPa | - | - | - | - |
| 1777750403 | 15.56° C | 48% | 1023.6 hPa | - | - | - | - |
| 1777749803 | 15.56° C | 46% | 1023.7 hPa | - | - | - | - |
| 1777748003 | 16.67° C | 44% | 1023.7 hPa | - | - | - | - |
| 1777747403 | 16.67° C | 43% | 1023.7 hPa | - | - | - | - |
| 1777746803 | 17.22° C | 42% | 1023.6 hPa | - | - | - | - |
| 1777745002 | 17.78° C | 42% | 1023.3 hPa | - | - | - | - |
| 1777744402 | 17.78° C | 41% | 1023.3 hPa | - | - | - | - |
| 1777743802 | 18.89° C | 42% | 1023.3 hPa | - | - | - | - |
| 1777742002 | 20° C | 38% | 1023.3 hPa | - | - | - | - |
| 1777741402 | 20.56° C | 35% | 1023.3 hPa | - | - | - | - |
| 1777740802 | 20.56° C | 32% | 1023.4 hPa | - | - | - | - |
* Rain since midnight (hover to see other rain measurements)
** Current wind speed in m/s (hover to see current wind gust speed)